Weather History for KMMH - May, 2013

Change the Weather History Date:

Saturday, May 11, 2013

  Actual Average (KBIH) Record (KBIH)
Temperature  
Mean Temperature 56 °F 62 °F  
Max Temperature 75 °F 81 °F 96 °F (1960)
Min Temperature 37 °F 43 °F 29 °F (1986)
Degree Days  
Heating Degree Days 9 4  
Month to date heating degree days 60  
Since 1 July heating degree days 4102  
Cooling Degree Days 0 1  
Month to date cooling degree days 9  
Year to date cooling degree days 13  
Growing Degree Days 6 (Base 50)    
Moisture  
Dew Point 29 °F    
Average Humidity 42    
Maximum Humidity 75    
Minimum Humidity 13    
Precipitation  
Precipitation 0.00 in 0.01 in 0.29 in (1957)
Month to date precipitation 0.06  
Year to date precipitation 2.75  
Snow  
Snow 0.00 in 0.00 in 0.40 in (1980)
Month to date snowfall 0.0  
Since 1 July snowfall 6.8  
Snow Depth -    
Sea Level Pressure  
Sea Level Pressure 30.42 in    
Wind  
Wind Speed 5 mph (NW)    
Max Wind Speed 16 mph    
Max Gust Speed 18 mph    
Visibility 10 miles    
Events      
T = Trace of Precipitation, MM = Missing Value Source: NWS Daily Summary

Daily Weather History Graph

Daily Weather History Graph

Search for Another Location

Airport or City:

Trip Planner

Search our weather history database for the weather conditions in past years. The results will help you decide how hot, cold, wet, or windy it might be!

Date:

Astronomy

May. 11, 2013 Rise Set
Actual Time 5:49 AM PDT 7:54 PM PDT
Civil Twilight 5:20 AM PDT 8:23 PM PDT
Nautical Twilight 4:44 AM PDT 8:59 PM PDT
Astronomical Twilight 4:06 AM PDT 9:38 PM PDT
Moon 7:01 AM PDT (5/11) 9:38 PM PDT (5/11)
Length of Visible Light 15h 03m
Length of Day
14h 05m
Waxing Crescent, 3% of the Moon is Illuminated
May 11
Waxing Crescent
May 17
First Quarter
May 24
Full
May 31
Last Quarter
Jun 8
New

Hourly Weather History & Observations

Time (PDT) Temp. Windchill Dew Point Humidity Pressure Visibility Wind Dir Wind Speed Gust Speed Precip Events Conditions
12:15 AM 42.8 °F 38.0 °F 32.0 °F 66% 30.43 in 10.0 mi WNW 8.1 mph - N/A   Clear
12:35 AM 42.8 °F 38.6 °F 30.2 °F 61% 30.44 in 10.0 mi NW 6.9 mph - N/A   Clear
12:55 AM 42.8 °F 39.3 °F 30.2 °F 61% 30.44 in 10.0 mi NNW 5.8 mph - N/A   Clear
1:15 AM 41.0 °F 37.1 °F 30.2 °F 65% 30.43 in 10.0 mi WNW 5.8 mph - N/A   Clear
1:35 AM 41.0 °F 38.0 °F 30.2 °F 65% 30.43 in 10.0 mi NNW 4.6 mph - N/A   Clear
1:55 AM 41.0 °F 35.2 °F 30.2 °F 65% 30.43 in 10.0 mi WNW 9.2 mph - N/A   Clear
2:15 AM 41.0 °F 37.1 °F 30.2 °F 65% 30.43 in 10.0 mi WNW 5.8 mph - N/A   Clear
2:35 AM 39.2 °F 35.9 °F 30.2 °F 70% 30.43 in 10.0 mi WNW 4.6 mph - N/A   Clear
2:55 AM 39.2 °F 37.0 °F 30.2 °F 70% 30.43 in 10.0 mi NW 3.5 mph - N/A   Clear
3:35 AM 39.2 °F 35.9 °F 32.0 °F 75% 30.43 in 10.0 mi NW 4.6 mph - N/A   Clear
3:55 AM 39.2 °F 35.9 °F 32.0 °F 75% 30.42 in 10.0 mi WNW 4.6 mph - N/A   Clear
4:15 AM 39.2 °F 35.0 °F 32.0 °F 75% 30.42 in 10.0 mi NW 5.8 mph - N/A   Clear
4:35 AM 39.2 °F 35.9 °F 30.2 °F 70% 30.43 in 10.0 mi NW 4.6 mph - N/A   Clear
4:55 AM 37.4 °F 32.1 °F 30.2 °F 75% 30.43 in 10.0 mi NW 6.9 mph - N/A   Clear
5:15 AM 37.4 °F 34.9 °F 30.2 °F 75% 30.42 in 10.0 mi NW 3.5 mph - N/A   Clear
5:35 AM 39.2 °F 35.9 °F 30.2 °F 70% 30.42 in 10.0 mi NW 4.6 mph - N/A   Clear
5:55 AM 37.4 °F 34.9 °F 30.2 °F 75% 30.43 in 10.0 mi NW 3.5 mph - N/A   Clear
6:15 AM 37.4 °F 34.9 °F 30.2 °F 75% 30.43 in 10.0 mi NW 3.5 mph - N/A   Clear
6:35 AM 37.4 °F 34.9 °F 30.2 °F 75% 30.44 in 10.0 mi NNW 3.5 mph - N/A   Clear
6:55 AM 41.0 °F - 32.0 °F 70% 30.44 in 10.0 mi Calm Calm - N/A   Clear
7:15 AM 44.6 °F 41.4 °F 32.0 °F 61% 30.44 in 10.0 mi WNW 5.8 mph - N/A   Clear
7:35 AM 48.2 °F - 33.8 °F 58% 30.44 in 10.0 mi North 4.6 mph - N/A   Clear
7:55 AM 51.8 °F - 35.6 °F 54% 30.44 in 10.0 mi Calm Calm - N/A   Clear
8:15 AM 53.6 °F - 35.6 °F 51% 30.44 in 10.0 mi Calm Calm - N/A   Clear
8:35 AM 55.4 °F - 35.6 °F 47% 30.44 in 10.0 mi SE 4.6 mph - N/A   Clear
8:55 AM 57.2 °F - 35.6 °F 44% 30.44 in 10.0 mi Calm Calm - N/A   Clear
9:15 AM 60.8 °F - 33.8 °F 36% 30.44 in 10.0 mi SSE 3.5 mph - N/A   Clear
9:35 AM 62.6 °F - 28.4 °F 27% 30.44 in 10.0 mi Calm Calm - N/A   Clear
9:55 AM 66.2 °F - 28.4 °F 24% 30.44 in 10.0 mi SE 4.6 mph - N/A   Clear
10:35 AM 68.0 °F - 21.2 °F 17% 30.44 in 10.0 mi SE 3.5 mph - N/A   Clear
10:55 AM 68.0 °F - 19.4 °F 16% 30.44 in 10.0 mi North - - N/A   Clear
11:15 AM 68.0 °F - 23.0 °F 18% 30.44 in 10.0 mi Calm Calm - N/A   Clear
11:35 AM 69.8 °F - 19.4 °F 15% 30.44 in 10.0 mi East 5.8 mph - N/A   Clear
11:55 AM 69.8 °F - 19.4 °F 15% 30.44 in 10.0 mi North - - N/A   Clear
12:15 PM 69.8 °F - 21.2 °F 16% 30.43 in 10.0 mi NE 4.6 mph - N/A   Clear
12:35 PM 71.6 °F - 21.2 °F 15% 30.43 in 10.0 mi SSE 9.2 mph - N/A   Clear
12:55 PM 73.4 °F - 19.4 °F 13% 30.42 in 10.0 mi Calm Calm - N/A   Clear
1:15 PM 73.4 °F - 21.2 °F 14% 30.42 in 10.0 mi ESE 4.6 mph - N/A   Clear
1:35 PM 73.4 °F - 21.2 °F 14% 30.42 in 10.0 mi NE 9.2 mph - N/A   Clear
1:55 PM 73.4 °F - 21.2 °F 14% 30.42 in 10.0 mi North - - N/A   Clear
2:15 PM 73.4 °F - 19.4 °F 13% 30.40 in 10.0 mi North - - N/A   Scattered Clouds
2:35 PM 75.2 °F - 21.2 °F 13% 30.40 in 10.0 mi SSW 3.5 mph - N/A   Scattered Clouds
2:55 PM 75.2 °F - 21.2 °F 13% 30.39 in 10.0 mi SE 8.1 mph - N/A   Clear
3:15 PM 75.2 °F - 21.2 °F 13% 30.38 in 10.0 mi SSE 3.5 mph - N/A   Scattered Clouds
3:35 PM 75.2 °F - 21.2 °F 13% 30.38 in 10.0 mi Calm Calm - N/A   Scattered Clouds
3:55 PM 75.2 °F - 23.0 °F 14% 30.37 in 10.0 mi NNE 10.4 mph - N/A   Clear
4:15 PM 75.2 °F - 21.2 °F 13% 30.37 in 10.0 mi ESE 6.9 mph - N/A   Scattered Clouds
4:35 PM 71.6 °F - 21.2 °F 15% 30.37 in 10.0 mi NW 6.9 mph - N/A   Clear
4:55 PM 71.6 °F - 28.4 °F 20% 30.37 in 10.0 mi WNW 6.9 mph - N/A   Mostly Cloudy
5:15 PM 73.4 °F - 30.2 °F 20% 30.37 in 10.0 mi WNW 10.4 mph 17.3 mph N/A   Overcast
5:35 PM 73.4 °F - 32.0 °F 22% 30.37 in 10.0 mi NW 11.5 mph 18.4 mph N/A   Mostly Cloudy
5:55 PM 71.6 °F - 32.0 °F 23% 30.37 in 10.0 mi WNW 12.7 mph 16.1 mph N/A   Scattered Clouds
6:15 PM 71.6 °F - 32.0 °F 23% 30.36 in 10.0 mi West 12.7 mph - N/A   Mostly Cloudy
6:35 PM 69.8 °F - 32.0 °F 25% 30.37 in 10.0 mi SW 10.4 mph - N/A   Mostly Cloudy
6:55 PM 68.0 °F - 33.8 °F 28% 30.37 in 10.0 mi North - - N/A   Scattered Clouds
7:15 PM 68.0 °F - 35.6 °F 30% 30.37 in 10.0 mi SSW 13.8 mph - N/A   Scattered Clouds
7:35 PM 66.2 °F - 35.6 °F 32% 30.38 in 10.0 mi SW 16.1 mph - N/A   Scattered Clouds
7:55 PM 64.4 °F - 35.6 °F 34% 30.38 in 10.0 mi SSW 10.4 mph - N/A   Scattered Clouds
8:15 PM 62.6 °F - 35.6 °F 37% 30.40 in 10.0 mi NW 3.5 mph - N/A   Clear
8:35 PM 62.6 °F - 35.6 °F 37% 30.40 in 10.0 mi North - - N/A   Clear
8:55 PM 59.0 °F - 35.6 °F 42% 30.41 in 10.0 mi Calm Calm - N/A   Clear
9:15 PM 55.4 °F - 35.6 °F 47% 30.41 in 10.0 mi NNW 3.5 mph - N/A   Clear
9:35 PM 55.4 °F - 35.6 °F 47% 30.43 in 10.0 mi Calm Calm - N/A   Clear
9:55 PM 55.4 °F - 37.4 °F 51% 30.43 in 10.0 mi North - - N/A   Clear
10:15 PM 51.8 °F - 35.6 °F 54% 30.44 in 10.0 mi Calm Calm - N/A   Clear
10:35 PM 51.8 °F - 35.6 °F 54% 30.44 in 10.0 mi Calm Calm - N/A   Clear
10:55 PM 51.8 °F - 35.6 °F 54% 30.44 in 10.0 mi Calm Calm - N/A   Clear
11:35 PM 48.2 °F - 35.6 °F 62% 30.44 in 10.0 mi Calm Calm - N/A   Clear
11:55 PM 46.4 °F - 33.8 °F 62% 30.44 in 10.0 mi Calm Calm - N/A   Clear